DW0805 Ramloese DK current weather conditions

sailwx.info

Wind from 270 at 4 knots gusting 8

Air temperature 21.1° C
Dewpoint 9.7° C

Last reported at 2015-Aug-02 15:45 UTC.
Time now 2015-Aug-02 16:21 UTC

Location: N 56°01' E 012°05'.
View on Google Maps.

See reports from other nearby stations

  
Tides and Currents Weather Stations Pressure Air Temp Water Temp Dewpoint Dewpoint Depression Visibility Wind Speed Wind Dir Waves Ship Positions
date/time (UTC)wind fromknots sea level pressurealtimeterstation pressurevisibilityair tempwater tempwave heightnotes
2015-Aug-02 15:45 270 4 gusting 8 21.1
2015-Aug-02 15:35 313 3 gusting 7 21.1
2015-Aug-02 15:25 291 5 gusting 8 21.1
2015-Aug-02 15:15 306 5 gusting 8 22.2
2015-Aug-02 15:05 294 6 gusting 11 22.2
2015-Aug-02 14:55 303 4 gusting 10 21.7
2015-Aug-02 14:45 303 5 gusting 8 22.2
2015-Aug-02 14:35 302 3 gusting 7 22.2
2015-Aug-02 14:25 309 4 gusting 8 22.2
2015-Aug-02 14:15 300 4 gusting 7 22.2
2015-Aug-02 14:05 319 5 gusting 8 21.7
2015-Aug-02 13:55 294 5 gusting 8 22.2
2015-Aug-02 13:45 322 5 gusting 10 21.7
2015-Aug-02 13:35 324 5 gusting 11 21.7
2015-Aug-02 13:25 312 6 gusting 10 21.7
2015-Aug-02 13:15 325 5 gusting 7 21.7
2015-Aug-02 13:05 327 5 gusting 10 22.2
2015-Aug-02 12:55 306 4 gusting 7 21.7
2015-Aug-02 12:45 326 4 gusting 6 21.7
2015-Aug-02 12:35 321 2 gusting 6 22.2
2015-Aug-02 12:25 322 2 gusting 7 22.2
2015-Aug-02 12:15 320 2 gusting 7 21.7
2015-Aug-02 12:05 301 4 gusting 8 21.7
2015-Aug-02 11:55 335 5 gusting 10 22.8
2015-Aug-02 11:45 284 4 gusting 6 22.2
2015-Aug-02 11:35 257 1 gusting 5 22.2
2015-Aug-02 11:25 212 0 gusting 6 21.1
2015-Aug-02 11:15 209 2 gusting 5 21.7
2015-Aug-02 11:05 209 1 gusting 7 21.1
2015-Aug-02 10:55 210 5 gusting 7 20.6
2015-Aug-02 10:45 212 5 gusting 6 20.6
2015-Aug-02 10:35 199 3 gusting 5 20.6
2015-Aug-02 10:25 215 2 gusting 5 20.6
2015-Aug-02 10:15 215 2 gusting 5 20.6
2015-Aug-02 10:05 214 3 gusting 5 20.0
2015-Aug-02 09:55 214 4 gusting 5 20.6
2015-Aug-02 09:45 213 4 gusting 5 20.6
2015-Aug-02 09:35 213 2 gusting 5 20.6
2015-Aug-02 09:25 213 2 gusting 5 20.6
2015-Aug-02 09:15 214 2 gusting 5 19.4
2015-Aug-02 09:05 214 2 gusting 4 19.4
2015-Aug-02 08:55 214 1 gusting 4 20.6
2015-Aug-02 08:45 214 0 gusting 4 20.0
2015-Aug-02 08:35 214 1 gusting 4 19.4
2015-Aug-02 08:25 213 2 gusting 4 18.3
2015-Aug-02 08:15 214 0 gusting 4 18.3
2015-Aug-02 08:05 215 1 gusting 4 18.3
2015-Aug-02 07:55 213 2 gusting 5 17.2
2015-Aug-02 07:45 214 2 gusting 5 17.2
2015-Aug-02 07:35 214 1 gusting 5 18.3
2015-Aug-02 07:25 214 1 gusting 5 17.2
2015-Aug-02 07:15 214 2 gusting 6 17.2
2015-Aug-02 07:05 214 0 gusting 5 17.2
2015-Aug-02 06:55 216 0 gusting 5 17.2
2015-Aug-02 06:45 216 2 gusting 5 16.1
2015-Aug-02 06:35 215 3 gusting 5 15.6
2015-Aug-02 06:25 217 2 gusting 5 15.6
2015-Aug-02 06:15 214 1 gusting 5 15.6
2015-Aug-02 06:05 213 1 gusting 5 15.0
2015-Aug-02 05:55 216 0 gusting 4 15.0
2015-Aug-02 05:45 271 14.4
2015-Aug-02 05:35 275 13.9
2015-Aug-02 05:25 214 1 gusting 2 13.9
2015-Aug-02 05:15 215 0 gusting 4 13.3
2015-Aug-02 05:05 215 12.8
2015-Aug-02 04:55 218 12.2
2015-Aug-02 04:45 293 2 gusting 4 12.2
2015-Aug-02 04:35 253 0 gusting 4 11.7
2015-Aug-02 04:25 221 0 gusting 2 11.7
2015-Aug-02 04:15 223 0 gusting 2 12.2
2015-Aug-02 04:05 216 0 gusting 2 11.7
2015-Aug-02 03:55 301 0 gusting 4 11.7
2015-Aug-02 03:45 221 1 gusting 4 11.7
2015-Aug-02 03:35 214 1 gusting 4 11.7
2015-Aug-02 03:25 214 11.7
2015-Aug-02 03:15 214 11.7
2015-Aug-02 03:05 214 0 gusting 2 11.7
2015-Aug-02 02:55 214 11.1
2015-Aug-02 02:45 214 0 gusting 1 11.1
2015-Aug-02 02:35 214 11.1
2015-Aug-02 02:25 214 11.1
2015-Aug-02 02:15 214 11.1
2015-Aug-02 02:05 214 11.1
2015-Aug-02 01:55 214 0 gusting 2 11.1
2015-Aug-02 01:45 214 0 gusting 4 11.1
2015-Aug-02 01:35 214 0 gusting 4 11.1
2015-Aug-02 01:25 214 11.1
2015-Aug-02 01:15 214 11.7
2015-Aug-02 01:05 214 11.7
2015-Aug-02 00:55 214 0 gusting 2 11.7
2015-Aug-02 00:45 214 12.2
2015-Aug-02 00:35 214 0 gusting 5 12.2
2015-Aug-02 00:25 214 2 gusting 5 12.2
2015-Aug-02 00:15 214 1 gusting 5 12.2
2015-Aug-02 00:05 214 12.2
2015-Aug-01 23:55 214 0 gusting 1 12.2
2015-Aug-01 23:45 214 0 gusting 1 12.8
2015-Aug-01 23:35 214 0 gusting 1 12.8
2015-Aug-01 23:25 214 0 gusting 4 12.8
2015-Aug-01 23:15 214 0 gusting 4 12.8
2015-Aug-01 23:05 214 1 gusting 5 12.8
2015-Aug-01 22:55 214 1 gusting 4 12.8
2015-Aug-01 22:45 214 0 gusting 2 12.8
2015-Aug-01 22:35 214 1 gusting 2 12.8
2015-Aug-01 22:25 214 0 gusting 5 12.8
2015-Aug-01 22:15 214 2 gusting 5 13.3
2015-Aug-01 22:05 214 4 gusting 7 13.3
2015-Aug-01 21:55 217 5 gusting 8 13.3
2015-Aug-01 21:45 211 5 gusting 7 13.3
2015-Aug-01 21:35 207 3 gusting 6 13.9
2015-Aug-01 21:25 203 4 gusting 6 13.9
2015-Aug-01 21:15 190 1 gusting 6 13.9
2015-Aug-01 21:05 182 4 gusting 6 13.9
2015-Aug-01 20:55 202 2 gusting 6 13.9
2015-Aug-01 20:45 183 1 gusting 7 14.4
2015-Aug-01 20:35 178 4 gusting 8 14.4
2015-Aug-01 20:25 178 4 gusting 8 14.4
2015-Aug-01 20:15 188 5 gusting 7 14.4
2015-Aug-01 20:05 180 5 gusting 7 14.4
2015-Aug-01 19:55 178 5 gusting 7 14.4
2015-Aug-01 19:45 164 1 gusting 5 14.4
2015-Aug-01 19:35 163 0 gusting 8 15.0
2015-Aug-01 19:25 169 2 gusting 5 15.0
2015-Aug-01 19:15 173 2 gusting 6 15.6
2015-Aug-01 19:05 180 5 gusting 8 15.6
2015-Aug-01 18:55 180 4 gusting 8 15.6
2015-Aug-01 18:45 180 3 gusting 7 15.6
2015-Aug-01 18:35 180 5 gusting 8 16.1
2015-Aug-01 18:25 183 6 gusting 8 16.1
2015-Aug-01 18:15 174 2 gusting 6 16.1
2015-Aug-01 18:05 146 2 gusting 6 16.1
2015-Aug-01 17:55 076 1 gusting 4 16.1
2015-Aug-01 17:45 067 1 gusting 5 16.7
2015-Aug-01 17:35 067 0 gusting 6 16.7
2015-Aug-01 17:25 064 0 gusting 5 16.7
2015-Aug-01 17:15 064 0 gusting 2 16.7
2015-Aug-01 17:05 065 1 gusting 4 17.2
2015-Aug-01 16:55 065 1 gusting 5 17.2
2015-Aug-01 16:45 065 1 gusting 6 17.2
2015-Aug-01 16:35 066 2 gusting 5 17.2
2015-Aug-01 16:25 065 4 gusting 6 17.8
2015-Aug-01 16:15 056 1 gusting 4 17.8
2015-Aug-01 16:05 056 3 gusting 6 17.2
2015-Aug-01 15:55 067 1 gusting 5 17.2
2015-Aug-01 15:45 074 1 gusting 6 17.2
2015-Aug-01 15:35 073 6 gusting 8 17.2
2015-Aug-01 15:25 071 3 gusting 6 17.8
2015-Aug-01 15:15 058 2 gusting 6 18.9
2015-Aug-01 15:05 278 0 gusting 5 19.4
2015-Aug-01 14:55 303 0 gusting 4 19.4
2015-Aug-01 14:45 286 1 gusting 4 18.9
2015-Aug-01 14:35 308 2 gusting 4 19.4
2015-Aug-01 14:25 297 1 gusting 5 20.0
2015-Aug-01 14:15 303 0 gusting 4 19.4
2015-Aug-01 14:05 320 1 gusting 5 18.9
2015-Aug-01 13:55 329 1 gusting 4 18.9
2015-Aug-01 13:45 316 0 gusting 4 19.4
2015-Aug-01 13:35 306 2 gusting 7 18.9
2015-Aug-01 13:25 321 2 gusting 7 19.4
2015-Aug-01 13:15 328 2 gusting 6 20.0
2015-Aug-01 13:05 315 5 gusting 6 19.4
2015-Aug-01 12:55 321 1 gusting 6 18.9
2015-Aug-01 12:45 002 2 gusting 6 18.9
2015-Aug-01 12:35 019 2 gusting 6 18.9
2015-Aug-01 12:25 286 1 gusting 6 18.3
2015-Aug-01 12:15 332 2 gusting 5 19.4
2015-Aug-01 12:05 292 2 gusting 7 18.9
2015-Aug-01 11:55 332 1 gusting 5 18.9
2015-Aug-01 11:45 301 1 gusting 6 18.3
2015-Aug-01 11:35 310 2 gusting 6 18.9
2015-Aug-01 11:25 265 4 gusting 7 18.9
2015-Aug-01 11:15 302 3 gusting 7 18.3
2015-Aug-01 11:05 342 1 gusting 8 18.3
2015-Aug-01 10:55 265 2 gusting 8 17.8
2015-Aug-01 10:45 343 4 gusting 8 18.3
2015-Aug-01 10:35 302 4 gusting 7 17.2
2015-Aug-01 10:25 280 2 gusting 6 16.1
2015-Aug-01 10:15 318 1 gusting 5 16.1
2015-Aug-01 10:05 316 2 gusting 5 16.1
2015-Aug-01 09:55 322 2 gusting 6 15.6
2015-Aug-01 09:45 288 4 gusting 6 15.6
2015-Aug-01 09:35 304 2 gusting 8 15.6
2015-Aug-01 09:25 275 4 gusting 7 16.1
2015-Aug-01 09:15 306 4 gusting 8 16.7
2015-Aug-01 09:05 327 6 gusting 10 16.7
2015-Aug-01 08:55 307 4 gusting 8 17.2
2015-Aug-01 08:45 274 6 gusting 10 16.7
2015-Aug-01 08:35 297 4 gusting 10 15.6
2015-Aug-01 08:25 294 2 gusting 8 16.1
2015-Aug-01 08:15 268 3 gusting 8 16.1
2015-Aug-01 08:05 255 5 gusting 10 15.6
2015-Aug-01 07:55 278 5 gusting 10 16.1
2015-Aug-01 07:45 282 5 gusting 10 15.6
2015-Aug-01 07:35 307 3 gusting 7 15.6
2015-Aug-01 07:25 278 3 gusting 10 15.6
2015-Aug-01 07:15 307 4 gusting 10 15.6
2015-Aug-01 07:05 335 4 gusting 8 15.6
2015-Aug-01 06:55 328 5 gusting 12 15.0
2015-Aug-01 06:45 257 5 gusting 8 15.0
2015-Aug-01 06:35 318 4 gusting 10 15.0
2015-Aug-01 06:25 325 4 gusting 8 15.0
2015-Aug-01 06:15 326 6 gusting 10 15.0
2015-Aug-01 06:05 320 4 gusting 8 15.0
2015-Aug-01 05:55 279 2 gusting 8 15.0
2015-Aug-01 05:45 326 4 gusting 10 14.4
2015-Aug-01 05:35 299 2 gusting 6 14.4
2015-Aug-01 05:25 322 1 gusting 7 13.9
2015-Aug-01 05:15 318 3 gusting 5 13.9
2015-Aug-01 05:05 323 2 gusting 5 13.3
2015-Aug-01 04:55 335 5 gusting 8 13.3
2015-Aug-01 04:45 321 2 gusting 5 12.8
2015-Aug-01 04:35 285 2 gusting 6 12.8
2015-Aug-01 04:25 303 2 gusting 5 12.8
2015-Aug-01 04:15 312 4 gusting 7 12.2
2015-Aug-01 04:05 323 4 gusting 6 12.2
2015-Aug-01 03:55 301 4 gusting 6 12.2
2015-Aug-01 03:45 335 4 gusting 8 12.2
2015-Aug-01 03:35 306 5 gusting 6 11.7
2015-Aug-01 03:25 311 2 gusting 5 11.7
2015-Aug-01 03:15 293 2 gusting 5 11.7
2015-Aug-01 03:05 308 2 gusting 7 12.2
2015-Aug-01 02:55 312 4 gusting 7 12.2
2015-Aug-01 02:45 301 5 gusting 7 12.2
2015-Aug-01 02:35 297 4 gusting 6 12.2
2015-Aug-01 02:25 310 4 gusting 6 11.7
2015-Aug-01 02:15 308 2 gusting 6 11.7
2015-Aug-01 02:05 305 3 gusting 8 11.7
2015-Aug-01 01:55 312 3 gusting 10 11.7
2015-Aug-01 01:45 299 5 gusting 8 11.7
2015-Aug-01 01:35 310 5 gusting 10 11.7
2015-Aug-01 01:25 317 2 gusting 7 11.7
2015-Aug-01 01:15 324 3 gusting 6 11.7
2015-Aug-01 01:05 321 4 gusting 10 12.2
2015-Aug-01 00:55 295 6 gusting 12 12.2
2015-Aug-01 00:45 302 4 gusting 10 12.2
2015-Aug-01 00:35 303 5 gusting 10 12.2
2015-Aug-01 00:25 303 5 gusting 11 12.2
2015-Aug-01 00:15 286 3 gusting 10 12.2
2015-Aug-01 00:05 296 4 gusting 6 12.2
2015-Jul-31 23:55 299 3 gusting 7 12.2
2015-Jul-31 23:45 302 2 gusting 8 12.8
2015-Jul-31 23:35 301 5 gusting 8 12.8
2015-Jul-31 23:25 296 5 gusting 10 12.8
2015-Jul-31 23:15 283 6 gusting 11 12.8
2015-Jul-31 23:05 292 4 gusting 8 12.8
2015-Jul-31 22:55 302 6 gusting 10 12.8
2015-Jul-31 22:45 302 6 gusting 10 12.8
2015-Jul-31 22:35 309 5 gusting 11 12.8
2015-Jul-31 22:25 306 6 gusting 11 12.8
2015-Jul-31 22:15 306 4 gusting 11 12.8
2015-Jul-31 22:05 293 6 gusting 13 12.2
2015-Jul-31 21:55 289 5 gusting 12 12.8
2015-Jul-31 21:45 298 7 gusting 13 12.8
2015-Jul-31 21:35 304 5 gusting 12 12.8
2015-Jul-31 21:25 297 6 gusting 12 12.8
2015-Jul-31 21:15 293 7 gusting 11 12.8
2015-Jul-31 21:05 292 5 gusting 10 12.8
2015-Jul-31 20:55 301 5 gusting 8 12.8
2015-Jul-31 20:45 298 6 gusting 12 13.3
2015-Jul-31 20:35 308 6 gusting 15 13.3
2015-Jul-31 20:25 294 5 gusting 12 13.9
2015-Jul-31 20:15 299 6 gusting 12 13.9
2015-Jul-31 20:05 302 7 gusting 13 13.9
2015-Jul-31 19:55 293 8 gusting 13 13.9
2015-Jul-31 19:45 283 7 gusting 13 13.9
2015-Jul-31 19:35 298 8 gusting 13 13.9
2015-Jul-31 19:25 293 6 gusting 13 13.9
2015-Jul-31 19:15 285 7 gusting 13 13.9
2015-Jul-31 19:05 288 7 gusting 13 13.9
2015-Jul-31 18:55 281 9 gusting 14 13.9
2015-Jul-31 18:45 287 6 gusting 14 13.9
2015-Jul-31 18:35 280 7 gusting 14 13.9
2015-Jul-31 18:25 288 7 gusting 12 14.4
2015-Jul-31 18:15 292 9 gusting 14 14.4
2015-Jul-31 18:05 282 6 gusting 13 14.4
2015-Jul-31 17:55 270 10 gusting 17 14.4
2015-Jul-31 17:45 277 8 gusting 15 15.0
2015-Jul-31 17:35 298 9 gusting 15 14.4
2015-Jul-31 17:25 321 6 gusting 14 15.0
2015-Jul-31 17:15 313 10 gusting 15 15.0
2015-Jul-31 17:05 278 10 gusting 17 15.6
2015-Jul-31 16:55 308 8 gusting 17 15.6
2015-Jul-31 16:45 308 8 gusting 17 15.6
2015-Jul-31 16:35 288 6 gusting 12 15.0
2015-Jul-31 16:25 320 9 gusting 13 15.0
2015-Jul-31 16:15 294 8 gusting 15 15.0
2015-Jul-31 16:05 273 8 gusting 15 15.0